Flag for Canada Weather past 2 weeks in Whitehorse, Yukon Territory, Canada

Now
48 °F

Broken clouds.


Feels Like: 42 °F
Forecast: 24 / 42 °F
Wind: 16 mph from South

Location: Withehorse


UV Index: 0 (Low)

Visibility: 40 mi


Pressure: 29.61 "Hg

Humidity: 29%

Dew point: 18 °F

Location of WhitehorseLocation

Historic Weather in Whitehorse

°F

Whitehorse temperature yesterday

Maximum temperature yesterday: 46 °F (at 4:00 PM)
Minimum temperature yesterday: 32 °F (at 6:00 AM)
Average temperature yesterday: 39 °F

Past Weeks' High & Low Weather Summary

 TemperatureHumidityPressure
High48 °F (Apr 14, 4:00 PM)93% (Apr 7, 10:00 AM)30.40 "Hg (Apr 7, 10:00 AM)
Low7 °F (Apr 11, 7:00 AM)18% (Apr 14, 4:00 PM)29.14 "Hg (Apr 7, 6:00 PM)
Average33 °F57%29.78 "Hg
* Reported Apr 4 3:00 PM — Apr 19 3:00 PM, Whitehorse, Weather by CustomWeather, © 2014

Note: Actual official high and low records may vary slightly from our data, if they occured in-between our weather recording intervals... More about our weather records

Advertising

Historic Weather Conditions — Data for Previous 24 hours

 ConditionsComfort  
Time TempWeatherWind HumidityBarometerVisibility
3:00 PM
Apr 19
48 °FPartly sunny.14 mph32%29.62 "Hg40 mi
2:00 PM46 °FBroken clouds.16 mph34%29.64 "Hg40 mi
1:00 PM45 °FBroken clouds.15 mph37%29.65 "Hg40 mi
12:00 PM39 °FScattered clouds.5 mph45%29.67 "Hg40 mi
11:00 AM36 °FScattered clouds.No wind52%29.70 "Hg40 mi
10:00 AM32 °FScattered clouds.No wind60%29.72 "Hg40 mi
9:00 AM28 °FScattered clouds.3 mph69%29.73 "Hg40 mi
8:00 AM25 °FScattered clouds.2 mph80%29.75 "Hg40 mi
7:00 AM23 °FPassing clouds.3 mph80%29.75 "Hg40 mi
6:00 AM25 °FClear.2 mph69%29.75 "Hg40 mi
5:00 AM25 °FClear.3 mph74%29.75 "Hg40 mi
4:00 AM27 °FClear.7 mph74%29.75 "Hg40 mi
3:00 AM28 °FClear.N/A69%29.76 "Hg35 mi
2:00 AM28 °FClear.8 mph74%29.76 "Hg40 mi
1:00 AM30 °FClear.8 mph69%29.75 "Hg40 mi
12:00 AM34 °FClear.8 mph60%29.75 "Hg40 mi
11:00 PM
Apr 18
34 °FPassing clouds.8 mph60%29.75 "Hg40 mi
10:00 PM37 °FScattered clouds.9 mph45%29.73 "Hg40 mi
9:00 PM41 °FScattered clouds.8 mph36%29.72 "Hg40 mi
8:00 PM43 °FBroken clouds.13 mph36%29.71 "Hg40 mi
7:00 PM45 °FBroken clouds.10 mph37%29.71 "Hg40 mi
6:00 PM45 °FPartly sunny.17 mph39%29.70 "Hg40 mi
5:00 PM45 °FPartly sunny.15 mph46%29.70 "Hg40 mi
4:00 PM46 °FPartly sunny.17 mph40%29.68 "Hg40 mi
Weather by CustomWeather, © 2014

See weather overview